Regional Weather Roundup
Issued by NWS

Home | Current Version | Previous Version | Text Only | Print | Product List | Glossary Off
Versions: 1 2 3 4 5 6 7 8 9 10 11 12 13 14 15 16 17 18 19 20 21 22 23 24 25 26 27 28 29 30 31 32 33 34 35 36 37 38 39 40 41 42 43 44 45 46 47 48 49 50

000
ASUS43 KDTX 280401
RWRMI
MICHIGAN HOURLY REGIONAL WEATHER ROUNDUP
NATIONAL WEATHER SERVICE DETROIT/PONTIAC MI
1100 PM EST THU NOV 27 2014

NOTE: "FAIR" INDICATES FEW OR NO CLOUDS BELOW 12,000 FEET WITH NO
SIGNIFICANT WEATHER AND/OR OBSTRUCTION TO VISIBILITY.

MIZ047>049-052>055-059>063-066>070-074>076-081>083-280500-
SOUTHEAST LOWER MICHIGAN

CITY           SKY/WX    TMP DP  RH WIND       PRES   REMARKS
ADRIAN         PTCLDY    21  15  78 NW5       30.32S WCI  15
ALMA           PTCLDY    18   8  66 NW9G16    30.33S WCI   7
ANN ARBOR      FAIR      22  11  62 NW10      30.30R WCI  11
BAD AXE        CLOUDY    20  12  70 NW13G18   30.28R WCI   8
CARO           CLOUDY    21  12  68 W14G20    30.29S WCI   8
DETROIT CITY   CLOUDY    27  12  53 NW8       30.29R WCI  19
DETROIT        PTCLDY    24  13  62 W12       30.30S WCI  13
FLINT          CLOUDY    24  10  55 NW14      30.31R WCI  12
GROSSE ILE     PTCLDY    27  18  69 NW12G17   30.28S WCI  16
HILLSDALE      MOCLDY    22  13  68 NW8       30.29S WCI  12
HOWELL         CLOUDY    21  13  71 NW9       30.29S WCI  11

CITY           SKY/WX    TMP DP  RH WIND       PRES   REMARKS
JACKSON        PTCLDY    19  10  68 N9        30.30F WCI   8
LAMBERTVILLE   PTCLDY    27  18  69 NW6       30.32S WCI  20
LANSING        CLOUDY    21  10  62 NW10      30.32S WCI  10
LAPEER         CLOUDY    22   7  52 N9        30.29R WCI  11
MASON          CLOUDY    22  10  59 NW10G17   30.31S WCI  11
MONROE         CLEAR     25  16  68 NW13      30.30R WCI  13
PONTIAC        FLURRIES  22   8  55 NW16      30.27R WCI   8
PORT HOPE        N/A     21   8  57 W10G17    30.26R WCI  10
PORT HURON     CLOUDY    23  12  63 NW13G22   30.27S WCI  11
TRI CITIES     CLOUDY    22   9  57 W10       30.32S WCI  11
TROY           MOCLDY    27  11  51 NW12      30.30S WCI  16
SAGINAW HB     CLOUDY    23  10  58 W12       30.31S WCI  12
$$
MIZ043>046-050>051-056>058-064>065-071>073-077>080-280500-
SOUTHWEST LOWER MICHIGAN

CITY           SKY/WX    TMP DP  RH WIND       PRES   REMARKS
BATTLE CREEK   CLOUDY    22  14  71 N7        30.33S WCI  13
BENTON HARBOR  CLOUDY    24  13  62 NW6       30.36S WCI  17
BIG RAPIDS     FLURRIES  19  17  92 W3        30.31S
COLDWATER      CLOUDY    24  17  75 NW3       30.32S
FREMONT        FLURRIES  19  13  77 CALM      30.33F
HOLLAND        CLOUDY    22  13  68 NE3       30.36S
GRAND RAPIDS   MOCLDY    19  10  68 NW5       30.34S WCI  12
IONIA          CLOUDY    22  10  61 NW8       30.32S WCI  12
KALAMAZOO      CLOUDY    21  16  81 N9        30.34S WCI  11
LUDINGTON      CLOUDY    19  12  73 CALM      30.34F
MARSHALL       CLOUDY    20  12  71 NW7       30.31S WCI  11
MOUNT PLEASANT PTCLDY    19   8  62 W6        30.31F WCI  11
MUSKEGON       FLURRIES  22  12  65 N3        30.36S
SOUTH HAVEN    CLOUDY    26  14  61 N5        30.35S WCI  20
$$
MIZ016>042-280500-
NORTHERN LOWER MICHIGAN

CITY           SKY/WX    TMP DP  RH WIND       PRES   REMARKS
ALPENA         CLOUDY    16   8  71 W9        30.26S WCI   4
BEAVER ISLAND  CLOUDY    19  11  71 NW7       30.30F WCI   9
BELLAIRE       LGT SNOW  19  15  86 CALM      30.32S
CADILLAC       FLURRIES  15  10  83 W5        30.26S WCI   7
CHARLEVOIX     FLURRIES  19  11  69 NW8G18    30.33S WCI   9
FRANKFORT      CLOUDY    20  13  73 NW6       30.32F WCI  12
GAYLORD        FLURRIES  14  10  84 VRB3      30.23F
GRAYLING       CLOUDY    16  10  80 W3        30.26F
HARBOR SPRINGS CLOUDY    18   9  69 W3        30.29S
HOUGHTON LAKE  FLURRIES  16  11  80 W5        30.27S WCI   9
MANISTEE       CLOUDY    19   9  63 NW3       30.33F
OSCODA         MOCLDY    16   8  70 W8        30.28R WCI   5
PELLSTON       CLOUDY    18   8  65 NW12      30.29S WCI   5
ROGERS CITY    FLURRIES  17  12  81 W10G17    30.27R WCI   5
TRAVERSE CITY  CLOUDY    19  10  68 W8        30.31S WCI   9
$$
MIZ007>008-015-280500-
EASTERN UPPER MICHIGAN

CITY           SKY/WX    TMP DP  RH WIND       PRES   REMARKS
KINROSS        CLOUDY     7   5  92 E5        30.26R WCI  -2
MACKINAC ISLAN PTCLDY    16  11  79 NW13G20   30.26F WCI   2
NEWBERRY       CLOUDY    12   9  89 W6        30.26S WCI   2
S. S. MARIE    CLEAR      5  -3  69 N5        30.28R WCI  -4
MUNISING         N/A     13   6  74 VRB3      30.29F
$$
MIZ004>006-011>014-085-280500-
CENTRAL UPPER MICHIGAN

CITY           SKY/WX    TMP DP  RH WIND       PRES   REMARKS
MANISTIQUE     PTCLDY     5   1  82 W5        30.29F WCI  -4
ESCANABA       PTCLDY     1  -6  71 W5        30.32F WCI  -8
MENOMINEE      PTCLDY     0  -2  92 CALM      30.33F
SAWYER-GWINN   MOCLDY     2  -2  82 W8        30.27R WCI -11
$$
MIZ001>003-009>011-084-280500-
WESTERN UPPER MICHIGAN

CITY           SKY/WX    TMP DP  RH WIND       PRES   REMARKS
IRON MOUNTAIN  PTCLDY    -5 -10  79 CALM      30.28F
HOUGHTON       LGT SNOW   8   3  80 SW6       30.25S WCI  -2
COPPER HARBOR    N/A     14   7  73 W5        30.28S WCI   6
IRONWOOD       PTCLDY    -9 -11  92 CALM      30.25F
$$

ABBREVIATIONS USED IN REMARKS
   TC - TEMPERATURE IN CELSIUS
  WCI - WIND CHILL INDEX
   HX - HEAT INDEX
  VSB - VISIBILITY



USA.gov is the U.S. government's official web portal to all federal, state and local government web resources and services.